Torna al catalogo

DELTA 1 DEB

LostSSO
NORAD 42582·DEBRIS·🇺🇸 United States

Lanciato Nov 6, 1973 da Vandenberg Space Force Base

Loading…

Prossimi Passaggi (prossime 24 ore)

TLE

ObsoletoSource: Space-Track

Epoca: Nov 8, 2024, 15:36 UTC

1 42582U 73086HW  24313.65055970  .00000236  00000-0  19484-2 0  9994
2 42582 101.8521 257.0136 0012858 115.7749 244.4646 12.45764885498497

Traccia DELTA 1 DEB in tempo reale con AllMySat

Download on the App Store